Weather History for Moline, IL

Change the Weather History Date:

Monday, October 31, 2011

  Actual Average Record
Temperature  
Mean Temperature 44 °F 48 °F  
Max Temperature 55 °F 58 °F 85 °F (1950)
Min Temperature 32 °F 38 °F 21 °F (1913)
Degree Days  
Heating Degree Days 21 17  
Month to date heating degree days 348 378  
Since 1 July heating degree days 514 482  
Cooling Degree Days 0 0  
Month to date cooling degree days 11 14  
Year to date cooling degree days 1126 1003  
Moisture  
Dew Point 33 °F    
Average Humidity 69    
Maximum Humidity 92    
Minimum Humidity 46    
Precipitation  
Precipitation 0.00 in 0.10 in 1.57 in (1960)
Month to date precipitation 0.67 2.97  
Year to date precipitation 27.73 33.22  
Snow  
Snow 0.00 in 0.00 in - ()
Month to date snowfall 0.0 0.0  
Since 1 July snowfall 0.0 0.0  
Since 1 September snowfall 0.0 0.0  
Snow Depth 0.00 in    
Sea Level Pressure  
Sea Level Pressure 30.06 in    
Wind  
Wind Speed 4 mph (West)    
Max Wind Speed 13 mph    
Max Gust Speed 16 mph    
Visibility 10 miles    
Events      
T = Trace of Precipitation, MM = Missing Value Source: NWS Daily Summary

Daily Weather History Graph

Daily Weather History Graph

Search for Another Location

Airport:

Trip Planner

Search our weather history database for the weather conditions in past years. The results will help you decide how hot, cold, wet, or windy it might be!

Date:

Astronomy

Oct. 31, 2011 Rise Set
Actual Time 7:32 AM CDT 5:58 PM CDT
Civil Twilight 7:03 AM CDT 6:27 PM CDT
Nautical Twilight 6:30 AM CDT 6:59 PM CDT
Astronomical Twilight 5:58 AM CDT 7:31 PM CDT
Moon 12:40 PM CDT 10:33 PM CDT
Length of Visible Light 11h 23m
Length of Day
10h 26m
Waxing Crescent, 30% of the Moon is Illuminated
Oct 31
Waxing Crescent
Nov 2
First Quarter
Nov 10
Full
Nov 18
Last Quarter
Nov 25
New

Hourly Weather History & Observations

Time (CDT) Temp. Windchill Dew Point Humidity Pressure Visibility Wind Dir Wind Speed Gust Speed Precip Events Conditions
12:52 AM 33.1 °F - 30.9 °F 92% 29.99 in 10.0 mi Calm Calm - N/A   Clear
1:52 AM 33.1 °F 30.0 °F 30.9 °F 92% 30.01 in 10.0 mi WSW 3.5 mph - N/A   Overcast
2:52 AM 36.0 °F - 33.1 °F 89% 30.01 in 10.0 mi Calm Calm - N/A   Overcast
3:52 AM 37.0 °F - 34.0 °F 89% 30.01 in 10.0 mi Calm Calm - N/A   Overcast
4:52 AM 37.9 °F - 35.1 °F 89% 30.02 in 10.0 mi Calm Calm - N/A   Overcast
5:52 AM 37.9 °F - 34.0 °F 86% 30.03 in 10.0 mi Calm Calm - N/A   Overcast
6:52 AM 36.0 °F 33.3 °F 32.0 °F 86% 30.04 in 10.0 mi West 3.5 mph - N/A   Clear
7:52 AM 34.0 °F - 30.0 °F 85% 30.05 in 10.0 mi Calm Calm - N/A   Clear
8:52 AM 39.0 °F 34.8 °F 34.0 °F 82% 30.08 in 10.0 mi West 5.8 mph - N/A   Mostly Cloudy
9:52 AM 45.0 °F 40.6 °F 36.0 °F 71% 30.09 in 10.0 mi WNW 8.1 mph - N/A   Clear
10:52 AM 48.0 °F - 36.0 °F 63% 30.09 in 10.0 mi WNW 6.9 mph - N/A   Clear
11:52 AM 51.1 °F - 37.0 °F 59% 30.10 in 10.0 mi WNW 9.2 mph - N/A   Partly Cloudy
12:52 PM 52.0 °F - 35.1 °F 53% 30.08 in 10.0 mi WNW 6.9 mph - N/A   Scattered Clouds
1:52 PM 52.0 °F - 35.1 °F 53% 30.07 in 10.0 mi WSW 10.4 mph - N/A   Partly Cloudy
2:52 PM 53.1 °F - 33.1 °F 47% 30.06 in 10.0 mi West 6.9 mph - N/A   Clear
3:52 PM 54.0 °F - 34.0 °F 47% 30.06 in 10.0 mi WNW 6.9 mph - N/A   Clear
4:52 PM 53.1 °F - 33.1 °F 47% 30.07 in 10.0 mi WSW 9.2 mph - N/A   Clear
5:52 PM 48.9 °F - 32.0 °F 52% 30.08 in 10.0 mi SW 4.6 mph - N/A   Clear
6:52 PM 41.0 °F 39.0 °F 33.1 °F 73% 30.09 in 10.0 mi SSE 3.5 mph - N/A   Clear
7:52 PM 37.9 °F - 32.0 °F 79% 30.10 in 10.0 mi Calm Calm - N/A   Clear
8:52 PM 39.9 °F - 32.0 °F 73% 30.11 in 10.0 mi Calm Calm - N/A   Clear
9:52 PM 37.9 °F - 30.9 °F 76% 30.12 in 10.0 mi Calm Calm - N/A   Clear
10:52 PM 39.0 °F - 30.0 °F 70% 30.10 in 10.0 mi Calm Calm - N/A   Clear
11:52 PM 37.4 °F 34.9 °F 30.2 °F 75% 30.09 in 10.0 mi East 3.5 mph - N/A   Clear